Year,Month,Day,Hour,Minute,Value (Times are PST for temperature in C)
2014,04,25,00,00,4.80
2014,04,25,00,01,4.80
2014,04,25,00,02,4.80
2014,04,25,00,03,4.80
2014,04,25,00,04,4.80
2014,04,25,00,05,4.70
2014,04,25,00,06,4.70
2014,04,25,00,07,4.70
2014,04,25,00,08,4.70
2014,04,25,00,09,4.70
2014,04,25,00,10,4.60
2014,04,25,00,11,4.60
2014,04,25,00,12,4.60
2014,04,25,00,13,4.60
2014,04,25,00,14,4.60
2014,04,25,00,15,4.60
2014,04,25,00,16,4.70
2014,04,25,00,17,4.70
2014,04,25,00,18,4.70
2014,04,25,00,19,4.60
2014,04,25,00,20,4.60
2014,04,25,00,21,4.70
2014,04,25,00,22,4.70
2014,04,25,00,23,4.70
2014,04,25,00,24,4.70
2014,04,25,00,25,4.70
2014,04,25,00,26,4.70
2014,04,25,00,27,4.70
2014,04,25,00,28,4.70
2014,04,25,00,29,4.90
2014,04,25,00,30,5.10
2014,04,25,00,31,5.10
2014,04,25,00,32,5.10
2014,04,25,00,33,5.10
2014,04,25,00,34,5.20
2014,04,25,00,35,5.20
2014,04,25,00,36,5.20
2014,04,25,00,37,5.10
2014,04,25,00,38,5.10
2014,04,25,00,39,5.10
2014,04,25,00,40,5.10
2014,04,25,00,41,5.10
2014,04,25,00,42,5.20
2014,04,25,00,43,5.20
2014,04,25,00,44,5.10
2014,04,25,00,45,5.10
2014,04,25,00,46,5.10
2014,04,25,00,47,5.10
2014,04,25,00,48,5.00
2014,04,25,00,49,5.00
2014,04,25,00,50,5.00
2014,04,25,00,51,5.00
2014,04,25,00,52,5.00
2014,04,25,00,53,4.90
2014,04,25,00,54,4.90
2014,04,25,00,55,4.90
2014,04,25,00,56,4.80
2014,04,25,00,57,4.80
2014,04,25,00,58,4.80
2014,04,25,00,59,4.90
2014,04,25,01,00,4.90
2014,04,25,01,01,4.90
2014,04,25,01,02,4.90
2014,04,25,01,03,4.80
2014,04,25,01,04,4.80
2014,04,25,01,05,4.80
2014,04,25,01,06,4.80
2014,04,25,01,07,4.80
2014,04,25,01,08,4.80
2014,04,25,01,09,4.80
2014,04,25,01,10,4.90
2014,04,25,01,11,4.90
2014,04,25,01,12,5.00
2014,04,25,01,13,5.00
2014,04,25,01,14,4.90
2014,04,25,01,15,4.80
2014,04,25,01,16,4.80
2014,04,25,01,17,4.80
2014,04,25,01,18,4.80
2014,04,25,01,19,4.80
2014,04,25,01,20,4.70
2014,04,25,01,21,4.70
2014,04,25,01,22,4.70
2014,04,25,01,23,4.80
2014,04,25,01,24,4.70
2014,04,25,01,25,4.70
2014,04,25,01,26,4.70
2014,04,25,01,27,4.70
2014,04,25,01,28,4.60
2014,04,25,01,29,4.60
2014,04,25,01,30,4.60
2014,04,25,01,31,4.50
2014,04,25,01,32,4.50
2014,04,25,01,33,4.50
2014,04,25,01,34,4.50
2014,04,25,01,35,4.50
2014,04,25,01,36,4.40
2014,04,25,01,37,4.40
2014,04,25,01,38,4.40
2014,04,25,01,39,4.40
2014,04,25,01,40,4.40
2014,04,25,01,41,4.40
2014,04,25,01,42,4.40
2014,04,25,01,43,4.40
2014,04,25,01,44,4.40
2014,04,25,01,45,4.50
2014,04,25,01,46,4.40
2014,04,25,01,47,4.40
2014,04,25,01,48,4.50
2014,04,25,01,49,4.50
2014,04,25,01,50,4.50
2014,04,25,01,51,4.50
2014,04,25,01,52,4.50
2014,04,25,01,53,4.50
2014,04,25,01,54,4.50
2014,04,25,01,55,4.40
2014,04,25,01,56,4.40
2014,04,25,01,57,4.30
2014,04,25,01,58,4.30
2014,04,25,01,59,4.30
2014,04,25,02,00,4.20
2014,04,25,02,01,4.20
2014,04,25,02,02,4.10
2014,04,25,02,03,4.10
2014,04,25,02,04,4.10
2014,04,25,02,05,4.10
2014,04,25,02,06,4.00
2014,04,25,02,07,4.00
2014,04,25,02,08,3.90
2014,04,25,02,09,3.90
2014,04,25,02,10,3.90
2014,04,25,02,11,3.80
2014,04,25,02,12,3.80
2014,04,25,02,13,3.80
2014,04,25,02,14,3.80
2014,04,25,02,15,3.80
2014,04,25,02,16,3.80
2014,04,25,02,17,3.80
2014,04,25,02,18,3.80
2014,04,25,02,19,3.90
2014,04,25,02,20,3.90
2014,04,25,02,21,3.90
2014,04,25,02,22,3.90
2014,04,25,02,23,3.90
2014,04,25,02,24,3.90
2014,04,25,02,25,3.90
2014,04,25,02,26,3.90
2014,04,25,02,27,3.80
2014,04,25,02,28,3.80
2014,04,25,02,29,3.70
2014,04,25,02,30,3.70
2014,04,25,02,31,3.60
2014,04,25,02,32,3.60
2014,04,25,02,33,3.60
2014,04,25,02,34,3.50
2014,04,25,02,35,3.50
2014,04,25,02,36,3.50
2014,04,25,02,37,3.50
2014,04,25,02,38,3.50
2014,04,25,02,39,3.40
2014,04,25,02,40,3.40
2014,04,25,02,41,3.40
2014,04,25,02,42,3.40
2014,04,25,02,43,3.40
2014,04,25,02,44,3.40
2014,04,25,02,45,3.40
2014,04,25,02,46,3.40
2014,04,25,02,47,3.40
2014,04,25,02,48,3.40
2014,04,25,02,49,3.40
2014,04,25,02,50,3.40
2014,04,25,02,51,3.50
2014,04,25,02,52,3.60
2014,04,25,02,53,3.70
2014,04,25,02,54,3.80
2014,04,25,02,55,3.90
2014,04,25,02,56,3.80
2014,04,25,02,57,3.80
2014,04,25,02,58,3.80
2014,04,25,02,59,3.80
2014,04,25,03,00,3.80
2014,04,25,03,01,3.80
2014,04,25,03,02,3.80
2014,04,25,03,03,3.80
2014,04,25,03,04,3.70
2014,04,25,03,05,3.70
2014,04,25,03,06,3.60
2014,04,25,03,07,3.60
2014,04,25,03,08,3.60
2014,04,25,03,09,3.50
2014,04,25,03,10,3.50
2014,04,25,03,11,3.40
2014,04,25,03,12,3.40
2014,04,25,03,13,3.40
2014,04,25,03,14,3.40
2014,04,25,03,15,3.40
2014,04,25,03,16,3.30
2014,04,25,03,17,3.40
2014,04,25,03,18,3.40
2014,04,25,03,19,3.40
2014,04,25,03,20,3.40
2014,04,25,03,21,3.40
2014,04,25,03,22,3.40
2014,04,25,03,23,3.30
2014,04,25,03,24,3.30
2014,04,25,03,25,3.40
2014,04,25,03,26,3.40
2014,04,25,03,27,3.40
2014,04,25,03,28,3.40
2014,04,25,03,29,3.40
2014,04,25,03,30,3.40
2014,04,25,03,31,3.40
2014,04,25,03,32,3.40
2014,04,25,03,33,3.40
2014,04,25,03,34,3.40
2014,04,25,03,35,3.30
2014,04,25,03,36,3.30
2014,04,25,03,37,3.30
2014,04,25,03,38,3.30
2014,04,25,03,39,3.30
2014,04,25,03,40,3.30
2014,04,25,03,41,3.20
2014,04,25,03,42,3.20
2014,04,25,03,43,3.20
2014,04,25,03,44,3.20
2014,04,25,03,45,3.20
2014,04,25,03,46,3.30
2014,04,25,03,47,3.30
2014,04,25,03,48,3.30
2014,04,25,03,49,3.30
2014,04,25,03,50,3.30
2014,04,25,03,51,3.30
2014,04,25,03,52,3.30
2014,04,25,03,53,3.40
2014,04,25,03,54,3.40
2014,04,25,03,55,3.30
2014,04,25,03,56,3.30
2014,04,25,03,57,3.30
2014,04,25,03,58,3.40
2014,04,25,03,59,3.40
2014,04,25,04,00,3.40
2014,04,25,04,01,3.40
2014,04,25,04,02,3.50
2014,04,25,04,03,3.60
2014,04,25,04,04,3.60
2014,04,25,04,05,3.60
2014,04,25,04,06,3.60
2014,04,25,04,07,3.50
2014,04,25,04,08,3.50
2014,04,25,04,09,3.50
2014,04,25,04,10,3.50
2014,04,25,04,11,3.50
2014,04,25,04,12,3.50
2014,04,25,04,13,3.50
2014,04,25,04,14,3.50
2014,04,25,04,15,3.50
2014,04,25,04,16,3.50
2014,04,25,04,17,3.50
2014,04,25,04,18,3.60
2014,04,25,04,19,3.60
2014,04,25,04,20,3.70
2014,04,25,04,21,3.70
2014,04,25,04,22,3.70
2014,04,25,04,23,3.70
2014,04,25,04,24,3.70
2014,04,25,04,25,3.70
2014,04,25,04,26,3.70
2014,04,25,04,27,3.70
2014,04,25,04,28,3.70
2014,04,25,04,29,3.70
2014,04,25,04,30,3.70
2014,04,25,04,31,3.60
2014,04,25,04,32,3.60
2014,04,25,04,33,3.60
2014,04,25,04,34,3.60
2014,04,25,04,35,3.70
2014,04,25,04,36,3.70
2014,04,25,04,37,3.70
2014,04,25,04,38,3.80
2014,04,25,04,39,3.80
2014,04,25,04,40,3.90
2014,04,25,04,41,3.90
2014,04,25,04,42,3.90
2014,04,25,04,43,3.90
2014,04,25,04,44,4.00
2014,04,25,04,45,4.00
2014,04,25,04,46,4.00
2014,04,25,04,47,4.00
2014,04,25,04,48,4.00
2014,04,25,04,49,4.00
2014,04,25,04,50,4.00
2014,04,25,04,51,4.00
2014,04,25,04,52,4.00
2014,04,25,04,53,4.00
2014,04,25,04,54,4.00
2014,04,25,04,55,3.90
2014,04,25,04,56,3.90
2014,04,25,04,57,3.90
2014,04,25,04,58,3.90
2014,04,25,04,59,3.90
2014,04,25,05,00,3.90
2014,04,25,05,01,3.90
2014,04,25,05,02,3.80
2014,04,25,05,03,3.90
2014,04,25,05,04,3.90
2014,04,25,05,05,3.90
2014,04,25,05,06,3.80
2014,04,25,05,07,3.80
2014,04,25,05,08,3.90
2014,04,25,05,09,3.90
2014,04,25,05,10,3.90
2014,04,25,05,11,3.90
2014,04,25,05,12,3.90
2014,04,25,05,13,3.90
2014,04,25,05,14,3.80
2014,04,25,05,15,3.80
2014,04,25,05,16,3.80
2014,04,25,05,17,3.80
2014,04,25,05,18,3.80
2014,04,25,05,19,3.80
2014,04,25,05,20,3.80
2014,04,25,05,21,3.80
2014,04,25,05,22,3.80
2014,04,25,05,23,3.80
2014,04,25,05,24,3.80
2014,04,25,05,25,3.80
2014,04,25,05,26,3.80
2014,04,25,05,27,3.90
2014,04,25,05,28,4.00
2014,04,25,05,29,4.00
2014,04,25,05,30,4.10
2014,04,25,05,31,4.10
2014,04,25,05,32,4.10
2014,04,25,05,33,4.10
2014,04,25,05,34,4.10
2014,04,25,05,35,4.10
2014,04,25,05,36,4.10
2014,04,25,05,37,4.10
2014,04,25,05,38,4.10
2014,04,25,05,39,4.10
2014,04,25,05,40,4.10
2014,04,25,05,41,4.10
2014,04,25,05,42,4.20
2014,04,25,05,43,4.20
2014,04,25,05,44,4.30
2014,04,25,05,45,4.40
2014,04,25,05,46,4.40
2014,04,25,05,47,4.50
2014,04,25,05,48,4.50
2014,04,25,05,49,4.50
2014,04,25,05,50,4.50
2014,04,25,05,51,4.50
2014,04,25,05,52,4.50
2014,04,25,05,53,4.60
2014,04,25,05,54,4.60
2014,04,25,05,55,4.60
2014,04,25,05,56,4.60
2014,04,25,05,57,4.50
2014,04,25,05,58,4.50
2014,04,25,05,59,4.50
2014,04,25,06,00,4.40
2014,04,25,06,01,4.40
2014,04,25,06,02,4.50
2014,04,25,06,03,4.50
2014,04,25,06,04,4.60
2014,04,25,06,05,4.60
2014,04,25,06,06,4.60
2014,04,25,06,07,4.60
2014,04,25,06,08,4.60
2014,04,25,06,09,4.60
2014,04,25,06,10,4.60
2014,04,25,06,11,4.60
2014,04,25,06,12,4.60
2014,04,25,06,13,4.60
2014,04,25,06,14,4.60
2014,04,25,06,15,4.60
2014,04,25,06,16,4.50
2014,04,25,06,17,4.50
2014,04,25,06,18,4.40
2014,04,25,06,19,4.40
2014,04,25,06,20,4.40
2014,04,25,06,21,4.30
2014,04,25,06,22,4.30
2014,04,25,06,23,4.30
2014,04,25,06,24,4.30
2014,04,25,06,25,4.30
2014,04,25,06,26,4.30
2014,04,25,06,27,4.30
2014,04,25,06,28,4.30
2014,04,25,06,29,4.30
2014,04,25,06,30,4.30
2014,04,25,06,31,4.40
2014,04,25,06,32,4.30
2014,04,25,06,33,4.40
2014,04,25,06,34,4.40
2014,04,25,06,35,4.40
2014,04,25,06,36,4.40
2014,04,25,06,37,4.40
2014,04,25,06,38,4.30
2014,04,25,06,39,4.30
2014,04,25,06,40,4.30
2014,04,25,06,41,4.30
2014,04,25,06,42,4.40
2014,04,25,06,43,4.40
2014,04,25,06,44,4.40
2014,04,25,06,45,4.40
2014,04,25,06,46,4.40
2014,04,25,06,47,4.50
2014,04,25,06,48,4.50
2014,04,25,06,49,4.50
2014,04,25,06,50,4.60
2014,04,25,06,51,4.60
2014,04,25,06,52,4.60
2014,04,25,06,53,4.70
2014,04,25,06,54,4.70
2014,04,25,06,55,4.70
2014,04,25,06,56,4.80
2014,04,25,06,57,4.80
2014,04,25,06,58,4.80
2014,04,25,06,59,4.80
2014,04,25,07,00,4.80
2014,04,25,07,01,4.80
2014,04,25,07,02,4.80
2014,04,25,07,03,4.80
2014,04,25,07,04,4.80
2014,04,25,07,05,4.80
2014,04,25,07,06,4.80
2014,04,25,07,07,4.80
2014,04,25,07,08,4.80
2014,04,25,07,09,4.80
2014,04,25,07,10,4.90
2014,04,25,07,11,4.90
2014,04,25,07,12,4.90
2014,04,25,07,13,4.90
2014,04,25,07,14,5.00
2014,04,25,07,15,5.00
2014,04,25,07,16,5.00
2014,04,25,07,17,5.00
2014,04,25,07,18,5.10
2014,04,25,07,19,5.10
2014,04,25,07,20,5.10
2014,04,25,07,21,5.20
2014,04,25,07,22,5.20
2014,04,25,07,23,5.20
2014,04,25,07,24,5.30
2014,04,25,07,25,5.30
2014,04,25,07,26,5.40
2014,04,25,07,27,5.40
2014,04,25,07,28,5.40
2014,04,25,07,29,5.50
2014,04,25,07,30,5.50
2014,04,25,07,31,5.60
2014,04,25,07,32,5.60
2014,04,25,07,33,5.70
2014,04,25,07,34,5.70
2014,04,25,07,35,5.80
2014,04,25,07,36,5.90
2014,04,25,07,37,6.00
2014,04,25,07,38,6.00
2014,04,25,07,39,6.10
2014,04,25,07,40,6.20
2014,04,25,07,41,6.20
2014,04,25,07,42,6.30
2014,04,25,07,43,6.30
2014,04,25,07,44,6.30
2014,04,25,07,45,6.40
2014,04,25,07,46,6.50
2014,04,25,07,47,6.50
2014,04,25,07,48,6.60
2014,04,25,07,49,6.70
2014,04,25,07,50,6.80
2014,04,25,07,51,6.80
2014,04,25,07,52,6.90
2014,04,25,07,53,7.00
2014,04,25,07,54,7.00
2014,04,25,07,55,7.10
2014,04,25,07,56,7.20
2014,04,25,07,57,7.20
2014,04,25,07,58,7.30
2014,04,25,07,59,7.40
2014,04,25,08,00,7.50
2014,04,25,08,01,7.60
2014,04,25,08,02,7.70
2014,04,25,08,03,7.70
2014,04,25,08,04,7.80
2014,04,25,08,05,7.90
2014,04,25,08,06,8.10
2014,04,25,08,07,8.20
2014,04,25,08,08,8.30
2014,04,25,08,09,8.40
2014,04,25,08,10,8.50
2014,04,25,08,11,8.60
2014,04,25,08,12,8.60
2014,04,25,08,13,8.70
2014,04,25,08,14,8.80
2014,04,25,08,15,8.80
2014,04,25,08,16,8.80
2014,04,25,08,17,8.80
2014,04,25,08,18,8.70
2014,04,25,08,19,8.70
2014,04,25,08,20,8.70
2014,04,25,08,21,8.70
2014,04,25,08,22,8.70
2014,04,25,08,23,8.70
2014,04,25,08,24,8.80
2014,04,25,08,25,8.80
2014,04,25,08,26,8.80
2014,04,25,08,27,8.80
2014,04,25,08,28,8.90
2014,04,25,08,29,8.90
2014,04,25,08,30,8.90
2014,04,25,08,31,9.00
2014,04,25,08,32,9.00
2014,04,25,08,33,9.00
2014,04,25,08,34,9.10
2014,04,25,08,35,9.10
2014,04,25,08,36,9.10
2014,04,25,08,37,9.20
2014,04,25,08,38,9.20
2014,04,25,08,39,9.20
2014,04,25,08,40,9.20
2014,04,25,08,41,9.20
2014,04,25,08,42,9.20
2014,04,25,08,43,9.10
2014,04,25,08,44,9.10
2014,04,25,08,45,9.00
2014,04,25,08,46,8.90
2014,04,25,08,47,9.00
2014,04,25,08,48,9.00
2014,04,25,08,49,9.10
2014,04,25,08,50,9.20
2014,04,25,08,51,9.20
2014,04,25,08,52,9.30
2014,04,25,08,53,9.30
2014,04,25,08,54,9.30
2014,04,25,08,55,9.40
2014,04,25,08,56,9.50
2014,04,25,08,57,9.60
2014,04,25,08,58,9.60
2014,04,25,08,59,9.60
2014,04,25,09,00,9.60
2014,04,25,09,01,9.60
2014,04,25,09,02,9.50
2014,04,25,09,03,9.50
2014,04,25,09,04,9.50
2014,04,25,09,05,9.40
2014,04,25,09,06,9.40
2014,04,25,09,07,9.40
2014,04,25,09,08,9.40
2014,04,25,09,09,9.50
2014,04,25,09,10,9.50
2014,04,25,09,11,9.60
2014,04,25,09,12,9.60
2014,04,25,09,13,9.70
2014,04,25,09,14,9.80
2014,04,25,09,15,9.90
2014,04,25,09,16,10.00
2014,04,25,09,17,10.00
2014,04,25,09,18,10.10
2014,04,25,09,19,10.10
2014,04,25,09,20,10.10
2014,04,25,09,21,10.10
2014,04,25,09,22,10.10
2014,04,25,09,23,10.10
2014,04,25,09,24,10.10
2014,04,25,09,25,10.10
2014,04,25,09,26,10.00
2014,04,25,09,27,10.00
2014,04,25,09,28,10.10
2014,04,25,09,29,10.10
2014,04,25,09,30,10.20
2014,04,25,09,31,10.20
2014,04,25,09,32,10.20
2014,04,25,09,33,10.30
2014,04,25,09,34,10.30
2014,04,25,09,35,10.30
2014,04,25,09,36,10.30
2014,04,25,09,37,10.30
2014,04,25,09,38,10.40
2014,04,25,09,39,10.50
2014,04,25,09,40,10.50
2014,04,25,09,41,10.60
2014,04,25,09,42,10.50
2014,04,25,09,43,10.60
2014,04,25,09,44,10.60
2014,04,25,09,45,10.60
2014,04,25,09,46,10.70
2014,04,25,09,47,10.70
2014,04,25,09,48,10.80
2014,04,25,09,49,10.80
2014,04,25,09,50,10.80
2014,04,25,09,51,10.80
2014,04,25,09,52,10.70
2014,04,25,09,53,10.60
2014,04,25,09,54,10.60
2014,04,25,09,55,10.50
2014,04,25,09,56,10.50
2014,04,25,09,57,10.50
2014,04,25,09,58,10.40
2014,04,25,09,59,10.50
2014,04,25,10,00,10.50
2014,04,25,10,01,10.60
2014,04,25,10,02,10.80
2014,04,25,10,03,10.90
2014,04,25,10,04,11.00
2014,04,25,10,05,11.10
2014,04,25,10,06,11.20
2014,04,25,10,07,11.20
2014,04,25,10,08,11.20
2014,04,25,10,09,11.20
2014,04,25,10,10,11.20
2014,04,25,10,11,11.20
2014,04,25,10,12,11.20
2014,04,25,10,13,11.10
2014,04,25,10,14,11.10
2014,04,25,10,15,11.20
2014,04,25,10,16,11.20
2014,04,25,10,17,11.30
2014,04,25,10,18,11.30
2014,04,25,10,19,11.40
2014,04,25,10,20,11.40
2014,04,25,10,21,11.50
2014,04,25,10,22,11.40
2014,04,25,10,23,11.40
2014,04,25,10,24,11.40
2014,04,25,10,25,11.40
2014,04,25,10,26,11.40
2014,04,25,10,27,11.40
2014,04,25,10,28,11.40
2014,04,25,10,29,11.40
2014,04,25,10,30,11.50
2014,04,25,10,31,11.60
2014,04,25,10,32,11.60
2014,04,25,10,33,11.60
2014,04,25,10,34,11.60
2014,04,25,10,35,11.60
2014,04,25,10,36,11.60
2014,04,25,10,37,11.60
2014,04,25,10,38,11.60
2014,04,25,10,39,11.60
2014,04,25,10,40,11.50
2014,04,25,10,41,11.40
2014,04,25,10,42,11.40
2014,04,25,10,43,11.40
2014,04,25,10,44,11.40
2014,04,25,10,45,11.40
2014,04,25,10,46,11.50
2014,04,25,10,47,11.50
2014,04,25,10,48,11.60
2014,04,25,10,49,11.60
2014,04,25,10,50,11.60
2014,04,25,10,51,11.60
2014,04,25,10,52,11.60
2014,04,25,10,53,11.50
2014,04,25,10,54,11.50
2014,04,25,10,55,11.50
2014,04,25,10,56,11.50
2014,04,25,10,57,11.50
2014,04,25,10,58,11.60
2014,04,25,10,59,11.60
2014,04,25,11,00,11.70
2014,04,25,11,01,11.70
2014,04,25,11,02,11.70
2014,04,25,11,03,11.60
2014,04,25,11,04,11.50
2014,04,25,11,05,11.50
2014,04,25,11,06,11.50
2014,04,25,11,07,11.50
2014,04,25,11,08,11.50
2014,04,25,11,09,11.60
2014,04,25,11,10,11.60
2014,04,25,11,11,11.70
2014,04,25,11,12,11.70
2014,04,25,11,13,11.80
2014,04,25,11,14,11.80
2014,04,25,11,15,11.80
2014,04,25,11,16,11.70
2014,04,25,11,17,11.70
2014,04,25,11,18,11.60
2014,04,25,11,19,11.60
2014,04,25,11,20,11.60
2014,04,25,11,21,11.60
2014,04,25,11,22,11.50
2014,04,25,11,23,11.40
2014,04,25,11,24,11.30
2014,04,25,11,25,11.30
2014,04,25,11,26,11.30
2014,04,25,11,27,11.30
2014,04,25,11,28,11.20
2014,04,25,11,29,11.20
2014,04,25,11,30,11.10
2014,04,25,11,31,11.10
2014,04,25,11,32,11.20
2014,04,25,11,33,11.20
2014,04,25,11,34,11.30
2014,04,25,11,35,11.40
2014,04,25,11,36,11.40
2014,04,25,11,37,11.50
2014,04,25,11,38,11.50
2014,04,25,11,39,11.50
2014,04,25,11,40,11.60
2014,04,25,11,41,11.60
2014,04,25,11,42,11.60
2014,04,25,11,43,11.60
2014,04,25,11,44,11.60
2014,04,25,11,45,11.70
2014,04,25,11,46,11.70
2014,04,25,11,47,11.80
2014,04,25,11,48,11.80
2014,04,25,11,49,11.80
2014,04,25,11,50,11.80
2014,04,25,11,51,11.60
2014,04,25,11,52,11.50
2014,04,25,11,53,11.40
2014,04,25,11,54,11.40
2014,04,25,11,55,11.30
2014,04,25,11,56,11.30
2014,04,25,11,57,11.20
2014,04,25,11,58,11.20
2014,04,25,11,59,11.30
2014,04,25,12,00,11.30
2014,04,25,12,01,11.40
2014,04,25,12,02,11.60
2014,04,25,12,03,11.70
2014,04,25,12,04,11.90
2014,04,25,12,05,12.00
2014,04,25,12,06,12.10
2014,04,25,12,07,12.20
2014,04,25,12,08,12.30
2014,04,25,12,09,12.30
2014,04,25,12,10,12.30
2014,04,25,12,11,12.20
2014,04,25,12,12,12.10
2014,04,25,12,13,12.00
2014,04,25,12,14,12.00
2014,04,25,12,15,11.90
2014,04,25,12,16,11.80
2014,04,25,12,17,11.80
2014,04,25,12,18,11.80
2014,04,25,12,19,11.80
2014,04,25,12,20,11.80
2014,04,25,12,21,11.80
2014,04,25,12,22,11.70
2014,04,25,12,23,11.70
2014,04,25,12,24,11.70
2014,04,25,12,25,11.70
2014,04,25,12,26,11.80
2014,04,25,12,27,11.80
2014,04,25,12,28,11.80
2014,04,25,12,29,11.90
2014,04,25,12,30,12.00
2014,04,25,12,31,12.10
2014,04,25,12,32,12.10
2014,04,25,12,33,12.20
2014,04,25,12,34,12.20
2014,04,25,12,35,12.30
2014,04,25,12,36,12.40
2014,04,25,12,37,12.50
2014,04,25,12,38,12.50
2014,04,25,12,39,12.40
2014,04,25,12,40,12.30
2014,04,25,12,41,12.30
2014,04,25,12,42,12.40
2014,04,25,12,43,12.50
2014,04,25,12,44,12.50
2014,04,25,12,45,12.60
2014,04,25,12,46,12.60
2014,04,25,12,47,12.50
2014,04,25,12,48,12.50
2014,04,25,12,49,12.40
2014,04,25,12,50,12.30
2014,04,25,12,51,12.30
2014,04,25,12,52,12.30
2014,04,25,12,53,12.30
2014,04,25,12,54,12.30
2014,04,25,12,55,12.30
2014,04,25,12,56,12.40
2014,04,25,12,57,12.40
2014,04,25,12,58,12.40
2014,04,25,12,59,12.40
2014,04,25,13,00,12.40
2014,04,25,13,01,12.40
2014,04,25,13,02,12.40
2014,04,25,13,03,12.50
2014,04,25,13,04,12.60
2014,04,25,13,05,12.70
2014,04,25,13,06,12.70
2014,04,25,13,07,12.80
2014,04,25,13,08,12.90
2014,04,25,13,09,12.90
2014,04,25,13,10,13.00
2014,04,25,13,11,13.00
2014,04,25,13,12,13.10
2014,04,25,13,13,13.00
2014,04,25,13,14,13.00
2014,04,25,13,15,12.90
2014,04,25,13,16,12.80
2014,04,25,13,17,12.80
2014,04,25,13,18,12.80
2014,04,25,13,19,12.90
2014,04,25,13,20,13.00
2014,04,25,13,21,13.10
2014,04,25,13,22,13.20
2014,04,25,13,23,13.30
2014,04,25,13,24,13.30
2014,04,25,13,25,13.30
2014,04,25,13,26,13.20
2014,04,25,13,27,13.20
2014,04,25,13,28,13.10
2014,04,25,13,29,13.00
2014,04,25,13,30,13.00
2014,04,25,13,31,12.90
2014,04,25,13,32,12.80
2014,04,25,13,33,12.70
2014,04,25,13,34,12.70
2014,04,25,13,35,12.70
2014,04,25,13,36,12.70
2014,04,25,13,37,12.70
2014,04,25,13,38,12.60
2014,04,25,13,39,12.50
2014,04,25,13,40,12.50
2014,04,25,13,41,12.50
2014,04,25,13,42,12.40
2014,04,25,13,43,12.30
2014,04,25,13,44,12.30
2014,04,25,13,45,12.30
2014,04,25,13,46,12.30
2014,04,25,13,47,12.30
2014,04,25,13,48,12.30
2014,04,25,13,49,12.20
2014,04,25,13,50,12.20
2014,04,25,13,51,12.20
2014,04,25,13,52,12.10
2014,04,25,13,53,12.00
2014,04,25,13,54,12.00
2014,04,25,13,55,11.90
2014,04,25,13,56,11.90
2014,04,25,13,57,11.80
2014,04,25,13,58,11.80
2014,04,25,13,59,11.80
2014,04,25,14,00,11.80
2014,04,25,14,01,11.80
2014,04,25,14,02,11.80
2014,04,25,14,03,11.80
2014,04,25,14,04,11.90
2014,04,25,14,05,11.90
2014,04,25,14,06,12.00
2014,04,25,14,07,12.00
2014,04,25,14,08,12.00
2014,04,25,14,09,12.00
2014,04,25,14,10,12.10
2014,04,25,14,11,12.20
2014,04,25,14,12,12.20
2014,04,25,14,13,12.30
2014,04,25,14,14,12.40
2014,04,25,14,15,12.50
2014,04,25,14,16,12.60
2014,04,25,14,17,12.70
2014,04,25,14,18,12.80
2014,04,25,14,19,12.90
2014,04,25,14,20,12.90
2014,04,25,14,21,13.00
2014,04,25,14,22,13.00
2014,04,25,14,23,12.90
2014,04,25,14,24,12.90
2014,04,25,14,25,12.90
2014,04,25,14,26,12.80
2014,04,25,14,27,12.80
2014,04,25,14,28,12.80
2014,04,25,14,29,12.80
2014,04,25,14,30,12.80
2014,04,25,14,31,12.90
2014,04,25,14,32,12.90
2014,04,25,14,33,12.90
2014,04,25,14,34,12.90
2014,04,25,14,35,13.00
2014,04,25,14,36,13.10
2014,04,25,14,37,13.20
2014,04,25,14,38,13.20
2014,04,25,14,39,13.30
2014,04,25,14,40,13.40
2014,04,25,14,41,13.60
2014,04,25,14,42,13.70
2014,04,25,14,43,13.70
2014,04,25,14,44,13.70
2014,04,25,14,45,13.70
2014,04,25,14,46,13.70
2014,04,25,14,47,13.60
2014,04,25,14,48,13.60
2014,04,25,14,49,13.60
2014,04,25,14,50,13.50
2014,04,25,14,51,13.40
2014,04,25,14,52,13.30
2014,04,25,14,53,13.20
2014,04,25,14,54,13.10
2014,04,25,14,55,13.10
2014,04,25,14,56,13.10
2014,04,25,14,57,13.10
2014,04,25,14,58,13.10
2014,04,25,14,59,13.20
2014,04,25,15,00,13.20
2014,04,25,15,01,13.20
2014,04,25,15,02,13.30
2014,04,25,15,03,13.40
2014,04,25,15,04,13.40
2014,04,25,15,05,13.50
2014,04,25,15,06,13.50
2014,04,25,15,07,13.50
2014,04,25,15,08,13.50
2014,04,25,15,09,13.50
2014,04,25,15,10,13.50
2014,04,25,15,11,13.40
2014,04,25,15,12,13.40
2014,04,25,15,13,13.50
2014,04,25,15,14,13.60
2014,04,25,15,15,13.70
2014,04,25,15,16,13.70
2014,04,25,15,17,13.70
2014,04,25,15,18,13.70
2014,04,25,15,19,13.70
2014,04,25,15,20,13.70
2014,04,25,15,21,13.60
2014,04,25,15,22,13.60
2014,04,25,15,23,13.70
2014,04,25,15,24,13.70
2014,04,25,15,25,13.70
2014,04,25,15,26,13.70
2014,04,25,15,27,13.60
2014,04,25,15,28,13.60
2014,04,25,15,29,13.60
2014,04,25,15,30,13.50
2014,04,25,15,31,13.40
2014,04,25,15,32,13.40
2014,04,25,15,33,13.30
2014,04,25,15,34,13.30
2014,04,25,15,35,13.30
2014,04,25,15,36,13.20
2014,04,25,15,37,13.20
2014,04,25,15,38,13.00
2014,04,25,15,39,13.00
2014,04,25,15,40,12.90
2014,04,25,15,41,13.00
2014,04,25,15,42,13.00
2014,04,25,15,43,13.00
2014,04,25,15,44,12.90
2014,04,25,15,45,12.80
2014,04,25,15,46,12.80
2014,04,25,15,47,12.80
2014,04,25,15,48,12.90
2014,04,25,15,49,12.90
2014,04,25,15,50,13.00
2014,04,25,15,51,13.10
2014,04,25,15,52,13.30
2014,04,25,15,53,13.40
2014,04,25,15,54,13.50
2014,04,25,15,55,13.40
2014,04,25,15,56,13.40
2014,04,25,15,57,13.40
2014,04,25,15,58,13.40
2014,04,25,15,59,13.30
2014,04,25,16,00,13.30
2014,04,25,16,01,13.30
2014,04,25,16,02,13.30
2014,04,25,16,03,13.40
2014,04,25,16,04,13.40
2014,04,25,16,05,13.40
2014,04,25,16,06,13.40
2014,04,25,16,07,13.40
2014,04,25,16,08,13.30
2014,04,25,16,09,13.30
2014,04,25,16,10,13.20
2014,04,25,16,11,13.20
2014,04,25,16,12,13.20
2014,04,25,16,13,13.30
2014,04,25,16,14,13.20
2014,04,25,16,15,13.10
2014,04,25,16,16,13.00
2014,04,25,16,17,13.00
2014,04,25,16,18,13.00
2014,04,25,16,19,12.90
2014,04,25,16,20,12.80
2014,04,25,16,21,12.70
2014,04,25,16,22,12.60
2014,04,25,16,23,12.60
2014,04,25,16,24,12.50
2014,04,25,16,25,12.40
2014,04,25,16,26,12.30
2014,04,25,16,27,12.30
2014,04,25,16,28,12.20
2014,04,25,16,29,12.20
2014,04,25,16,30,12.10
2014,04,25,16,31,12.00
2014,04,25,16,32,11.90
2014,04,25,16,33,11.90
2014,04,25,16,34,11.90
2014,04,25,16,35,11.90
2014,04,25,16,36,11.90
2014,04,25,16,37,11.90
2014,04,25,16,38,11.90
2014,04,25,16,39,12.00
2014,04,25,16,40,12.00
2014,04,25,16,41,12.00
2014,04,25,16,42,12.10
2014,04,25,16,43,12.10
2014,04,25,16,44,12.10
2014,04,25,16,45,12.10
2014,04,25,16,46,12.10
2014,04,25,16,47,12.10
2014,04,25,16,48,12.20
2014,04,25,16,49,12.20
2014,04,25,16,50,12.30
2014,04,25,16,51,12.20
2014,04,25,16,52,12.20
2014,04,25,16,53,12.20
2014,04,25,16,54,12.30
2014,04,25,16,55,12.30
2014,04,25,16,56,12.40
2014,04,25,16,57,12.50
2014,04,25,16,58,12.60
2014,04,25,16,59,12.70
2014,04,25,17,00,12.80
2014,04,25,17,01,12.80
2014,04,25,17,02,12.80
2014,04,25,17,03,12.80
2014,04,25,17,04,12.80
2014,04,25,17,05,12.90
2014,04,25,17,06,12.90
2014,04,25,17,07,12.90
2014,04,25,17,08,13.00
2014,04,25,17,09,13.10
2014,04,25,17,10,13.20
2014,04,25,17,11,13.20
2014,04,25,17,12,13.30
2014,04,25,17,13,13.30
2014,04,25,17,14,13.30
2014,04,25,17,15,13.30
2014,04,25,17,16,13.20
2014,04,25,17,17,13.20
2014,04,25,17,18,13.30
2014,04,25,17,19,13.30
2014,04,25,17,20,13.40
2014,04,25,17,21,13.50
2014,04,25,17,22,13.60
2014,04,25,17,23,13.70
2014,04,25,17,24,13.80
2014,04,25,17,25,14.00
2014,04,25,17,26,14.10
2014,04,25,17,27,14.10
2014,04,25,17,28,14.10
2014,04,25,17,29,14.00
2014,04,25,17,30,13.80
2014,04,25,17,31,13.80
2014,04,25,17,32,13.70
2014,04,25,17,33,13.70
2014,04,25,17,34,13.70
2014,04,25,17,35,13.80
2014,04,25,17,36,13.80
2014,04,25,17,37,13.80
2014,04,25,17,38,13.90
2014,04,25,17,39,13.80
2014,04,25,17,40,13.80
2014,04,25,17,41,13.80
2014,04,25,17,42,13.80
2014,04,25,17,43,13.70